weather.gov     
National Weather Service

Regional Weather Roundup
NWS Homepage
This page is being discontinued on March 12, 2014.
The same data is available at this site. Please update your bookmarks.
Thank you, and we apologize for the inconvenience.
Please send an email to SR-SRH.Webmaster@noaa.gov with any concerns.


Current Version
Previous Version:    01  02  03  04  05  06  07  08  09  10  11  12  13  14  15  16  17  18  19  20  21  22  23  24  25  26  
[Printable]
353
ASUS42 KTBW 200810
RWRFL
FLORIDA REGIONAL WEATHER ROUNDUP
NATIONAL WEATHER SERVICE TAMPA BAY RUSKIN FL
300 AM EST SAT DEC 20 2014

NOTE: "FAIR" INDICATES FEW OR NO CLOUDS BELOW 12,000 FEET WITH NO
SIGNIFICANT WEATHER AND/OR OBSTRUCTIONS TO VISIBILITY.


FLZ001>010-012>015-112-114-115-200900-
PANHANDLE FLORIDA

CITY           SKY/WX    TMP DP  RH WIND       PRES   REMARKS
PENSACOLA      CLOUDY    47  46  97 NE7       30.07S WCI  44
PENSACOLA NAS  RAIN      50  48  93 NE7       30.07R
MILTON NAS     CLOUDY    47  47 100 NE6       30.07F WCI  44
CRESTVIEW      CLOUDY    47  46  97 NE5       30.10F WCI  45
DUKE FIELD     CLOUDY    48  47  95 NE7       30.08S WCI  45
VALPARAISO     DRIZZLE   49  47  94 NE13      30.06F WCI  44
MARY ESTHER    CLOUDY    49  45  87 NE9       30.05F WCI  45
TRI COUNTY       N/A     47  46  97 NE5       30.11  WCI  45
PANAMA CITY    CLOUDY    50  47  89 N8        30.08S
TYNDALL AFB    LGT RAIN  50  46  87 NE7       30.08S
APALACHICOLA   CLOUDY    53  48  83 NE7       30.07S

STATION/POSITION SKY/WX   TEMP    WIND        PRES    WAVE   SWELL
                          AIR SEA DIR/SP/G            HT/PER HT/PER
                          (F)     (DEG/KT/KT) (MB)    (FT/S) (FT/S)
30.1N   87.6W              59 66   60/ 17/ 21 1016.4F   4/ 5
29.2N   88.2W              68 75  110/ 21/ 25 1015.2F   5/ 6
28.7N   86.0W              65 75   80/ 19/ 23 1016.5    3/ 5
PANAMA CITY BEAC           51 62   30/ 10/ 13 1018.2R
CAPE SAN BLAS    NOT AVBL
TOWER C                    58      60/ 16/ 18 1018.0F
28.5N   84.5W              65 71   50/ 16/ 17 1017.2F   1/ 3

$$
FLZ011-016>038-118-127-128-134-139-239-200900-
NORTH FLORIDA

CITY           SKY/WX    TMP DP  RH WIND       PRES   REMARKS
MARIANNA       CLOUDY    49  49 100 NE3       30.11F
TALLAHASSEE    CLOUDY    52  47  83 CALM      30.10F
PERRY          CLOUDY    52  49  87 N3        30.10S
CROSS CITY       N/A     47  43  86 CALM      30.08F
LAKE CITY      FAIR      52  46  82 E3        30.09F
GAINESVILLE    PTCLDY    46  43  89 N3        30.09F
MAYPORT NAS    PTCLDY    56  52  86 VRB3      30.10F
JACKSONVILLE   MOCLDY    52  50  93 N7        30.11S
JAX NAS        MOCLDY    59  51  75 N8        30.11S
JAX CRAIG      PTCLDY    53  49  86 N6        30.11S
JAX CECIL      PTCLDY    48  46  93 CALM      30.11S
FERNANDINA BEA FAIR      59  55  88 N5        30.10S
ST AUGUSTINE   CLEAR     56  54  93 NW5       30.10F

STATION/POSITION SKY/WX   TEMP    WIND        PRES    WAVE   SWELL
                          AIR SEA DIR/SP/G            HT/PER HT/PER
                          (F)     (DEG/KT/KT) (MB)    (FT/S) (FT/S)
SHELL POINT                51      20/  6/ 10   N/A
KEATON BEACH               54      50/  6/  9 1018.9R
CEDAR KEY                  56      40/  6/  6 1018.9F
FERNANDINA                 56 58   10/  5/  8 1019.0F
30.7N   81.3W                 60                N/A     1/11
MAYPORT                    57 60  340/  4/  6   N/A
31.4N   80.9W              58 57   30/  6/  6 1019.8F   1/10   2/10
ST AUGUSTINE               58     340/  8/ 10 1019.3F

$$
FLZ040-043>046-052-053-057-058-063-144-200900-
INTERIOR CENTRAL FLORIDA

CITY           SKY/WX    TMP DP  RH WIND       PRES   REMARKS
OCALA          PTCLDY    48  43  81 CALM      30.08F
THE VILLAGES     N/A     54  50  87 N3        29.98S
LEESBURG       PTCLDY    55  52  89 N5        30.08R
SANFORD        MOCLDY    55  51  86 CALM      30.06S
ORLANDO EXEC   MOCLDY    58  53  84 CALM      30.06F
ORLANDO INTL   CLOUDY    58  54  86 CALM      30.07S
WINTER HAVEN   PTCLDY    58  52  80 E6        30.07S
LAKELAND       PTCLDY    54  50  87 CALM      30.05F
BARTOW         FAIR      52  52 100 SE3       30.07S
OKEECHOBEE     PTCLDY    52  52 100 CALM      30.07S

$$
FLZ041-047-054-059-064-141-147-200900-
EAST CENTRAL FLORIDA

CITY           SKY/WX    TMP DP  RH WIND       PRES   REMARKS
DAYTONA BEACH  PTCLDY    55  53  93 NW5       30.08S
DELAND         PTSUNNY  N/A N/A N/A N6        30.08S
JFK SPACE CTR  MOCLDY    53  52  95 CALM      30.06F
CAPE CANAVERAL PTCLDY    54  51  92 NE2       30.05F
PATRICK AFB    CLEAR     60  59  96 CALM      30.05F
MELBOURNE      CLEAR     55  53  93 CALM      30.05F FOG
VERO BEACH     PTCLDY    56  55  97 CALM      30.06S
FT PIERCE      PTCLDY    55  53  93 CALM      30.06S
STUART         PTCLDY    59  57  94 W3        30.07S

STATION/POSITION SKY/WX   TEMP    WIND        PRES    WAVE   SWELL
                          AIR SEA DIR/SP/G            HT/PER HT/PER
                          (F)     (DEG/KT/KT) (MB)    (FT/S) (FT/S)
28.5N   80.2W              72 75  140/  6/  8 1018.3F
28.9N   78.5W              71 76  140/  6/  8 1018.6F   2/11   2/11
TRIDENT PIER               58 65   CALM  /  2 1017.3F
28.4N   80.5W                 66                N/A     1/11
27.6N   80.2W                 76                N/A     2/11   2/11

$$
FLZ050-056-061-142-242-148-248-149-249-151-251-155-255-
160-260-200900-
WEST CENTRAL FLORIDA

CITY           SKY/WX    TMP DP  RH WIND       PRES   REMARKS
CRYSTAL RIVER  FAIR      46  43  87 CALM      30.08S
INVERNESS      FAIR      48  45  87 CALM      30.08S
BROOKSVILLE    PTCLDY    51  46  83 CALM      30.07S
ZEPHYRHILLS    FAIR      46  45  93 N3        30.07S
CLEARWATER     CLEAR     55  52  89 CALM      30.05S
TAMPA INTL     PTCLDY    56  49  77 CALM      30.06S
TAMPA EXEC     CLEAR     50  46  87 CALM      30.07R
PLANT CITY     PTCLDY    54  54 100 CALM      30.07F
MACDILL AFB    CLEAR     58  56  95 E5        30.06S
PETER O KNIGHT CLEAR     59  54  82 CALM      30.06S
ST PETERSBURG  CLEAR     62  55  77 SE5       30.04F
SARASOTA       CLEAR     54  52  93 SE7       30.04S
VENICE         FAIR      55  54  94 E5        30.05F

STATION/POSITION SKY/WX   TEMP    WIND        PRES    WAVE   SWELL
                          AIR SEA DIR/SP/G            HT/PER HT/PER
                          (F)     (DEG/KT/KT) (MB)    (FT/S) (FT/S)
CEDAR KEY                  56      40/  6/  6 1018.9F
28.5N   84.5W              65 71   50/ 16/ 17 1017.2F   1/ 3
27.3N   84.3W                 76                N/A     2/ 3
CLEARWATER BEACH           61 64  130/  5/  8 1017.3S
MIDDLE TAMPA BAY           60     140/ 11/ 13 1017.5F
VENICE                     56 65   80/  9/ 10 1017.0F

$$
FLZ066-069-070-075>078-162-262-165-265-200900-
SOUTHWEST FLORIDA AND KEYS

CITY           SKY/WX    TMP DP  RH WIND       PRES   REMARKS
PUNTA GORDA    CLEAR     50  48  93 CALM      30.07F
FT MYERS       CLEAR     56  53  90 CALM      30.04F
SOUTHWEST INTL CLEAR     55  52  89 NE5       30.05S
NAPLES           N/A    N/A N/A N/A E3        30.04F
MARCO ISLAND   SUNNY     57  54  88 E5        30.04F
MARATHON       PTCLDY    72  63  73 SE5       30.02S
KEY WEST NAS   PTCLDY    70  62  76 E8        30.01F
KEY WEST INTL  MOCLDY    73  62  68 SE12      30.02F

STATION/POSITION SKY/WX   TEMP    WIND        PRES    WAVE   SWELL
                          AIR SEA DIR/SP/G            HT/PER HT/PER
                          (F)     (DEG/KT/KT) (MB)    (FT/S) (FT/S)
VENICE                     56 65   80/  9/ 10 1017.0F
NAPLES                     62 72   90/  5/  5 1017.6F
26.0N   85.6W              72 76  130/ 10/ 12 1015.8F   3/ 6   2/ 6
DRY TORTUGAS               72     110/ 11/ 13 1016.3F
NW FL BAY                  68      70/  4/  5 1017.3F
SAND KEY                   74     120/ 12/ 14 1016.3F
SOMBRERO KEY               74     130/ 12/ 13 1017.1F
LONG KEY                   72 70  130/  5/  6 1017.7F
MOLASSES REEF              74 76  130/  9/ 10 1016.8F

$$
FLZ067-068-071>074-168-172>174-200900-
SOUTHEAST FLORIDA

CITY           SKY/WX    TMP DP  RH WIND       PRES   REMARKS
W PALM BEACH   CLOUDY    68  62  81 W5        30.04S
FT LAUDER-EXEC CLEAR     60  57  89 CALM      30.05S
FT LAUDERDALE  PTCLDY    67  58  72 SE5       30.04F
POMPANO BEACH  PTCLDY    71  58  63 SE7       30.05S
PEMBROKE PINES CLEAR     60  56  86 CALM      30.06S
OPA LOCKA      CLEAR     58  57  97 CALM      30.05F
MIAMI          PTCLDY    65  59  81 CALM      30.05S
WEST KENDALL   CLEAR    N/A N/A N/A CALM      30.05S HAZE
HOMESTEAD      CLEAR     60  57  91 NW1       30.04F

STATION/POSITION SKY/WX   TEMP    WIND        PRES    WAVE   SWELL
                          AIR SEA DIR/SP/G            HT/PER HT/PER
                          (F)     (DEG/KT/KT) (MB)    (FT/S) (FT/S)
PORT EVERGLADES            73     140/  7/ 10 1017.2
VIRGINIA KEY               72 71  120/  5/  6 1017.7F
LAKE WORTH                 72 76  230/  4/  7 1017.4R
SETTLEMENT POINT           70      60/  9/  9 1018.8R

$$





U.S. Dept. of Commerce
NOAA National Weather Service
1325 East West Highway
Silver Spring, MD 20910
E-mail: w-nws.webmaster@noaa.gov
Page last modified: May 16, 2007
NATIONAL WEATHER SERVICE: for Safety, for Work, for Fun - FOR LIFE